X  Close Overcast throughout the day.
Conditions Temperature Feels Precipitation Wind Wind Direction UV index Pressure
19:00 partly-cloudy-night Mostly Cloudy 10° 0.11 mm 25% 10-36 km/h WNW WNW - 1016,8
20:00 partly-cloudy-night Mostly Cloudy 9° 0.06 mm 16% 8-34 km/h WNW WNW - 1017,8
21:00 partly-cloudy-night Mostly Cloudy 9° 0.02 mm 10% 11-33 km/h NW NW - 1018,7
22:00 partly-cloudy-night Mostly Cloudy 9° 0.01 mm 5% 13-33 km/h West West - 1019,3
23:00 partly-cloudy-night Partly Cloudy 8° 0.01 mm 4% 13-34 km/h SW SW - 1019,8
00:00 partly-cloudy-night Partly Cloudy 7° - 15-35 km/h NW NW - 1019,8
01:00 clear-night Clear 7° - 15-35 km/h West West - 1019,9
02:00 clear-night Clear 6° - 15-34 km/h West West - 1020,2
03:00 clear-night Clear 6° - 14-31 km/h WNW WNW - 1020,7
04:00 clear-night Clear 5° 2° - 14-30 km/h WNW WNW - 1021,4
05:00 clear-night Clear 5° 2° - 14-30 km/h WNW WNW - 1021,9
06:00 clear-night Clear 4° 1° - 13-30 km/h WNW WNW - 1022,6
07:00 clear-day Clear 5° 2° - 14-30 km/h NW NW - 1023,1
08:00 clear-day Clear 7° - 15-29 km/h NW NW uv-1 1023,4
09:00 clear-day Clear 9° - 16-27 km/h NW NW uv-2 1023,1
10:00 clear-day Clear 11° - 18-26 km/h NW NW uv-3 1023,2
11:00 partly-cloudy-day Partly Cloudy 12° - 19-27 km/h WNW WNW uv-4 1023,2
12:00 partly-cloudy-day Mostly Cloudy 13° 0.01 mm 2% 20-28 km/h WNW WNW uv-4 1023,0
13:00 cloudy Overcast 13° 0.02 mm 3% 20-28 km/h WNW WNW uv-3 1022,7
14:00 cloudy Overcast 14° 0.02 mm 4% 20-26 km/h WNW WNW uv-3 1022,4
15:00 cloudy Overcast 15° 0.03 mm 5% 18-23 km/h NW NW uv-2 1022,0
16:00 cloudy Overcast 14° 0.04 mm 7% 16-21 km/h NW NW uv-1 1021,8
17:00 cloudy Overcast 13° 0.07 mm 9% 15-24 km/h NW NW - 1022,0
18:00 cloudy Overcast 11° 0.12 mm 17% 13-29 km/h NW NW - 1022,4
19:00 cloudy Overcast 10° 0.16 mm 24% 12-33 km/h NW NW - 1022,7
20:00 cloudy Overcast 10° 0.14 mm 25% 12-33 km/h NW NW - 1023,0
21:00 cloudy Overcast 9° 0.11 mm 24% 12-31 km/h NNW NNW - 1023,1
22:00 cloudy Overcast 9° 0.09 mm 23% 12-30 km/h NNW NNW - 1023,1
23:00 cloudy Overcast 8° 0.12 mm 26% 13-29 km/h NNW NNW - 1022,8
00:00 rain Possible Drizzle 8° 0.18 mm 33% 13-29 km/h WNW WNW - 1022,4
01:00 rain Possible Drizzle 8° 0.22 mm 38% 14-30 km/h WNW WNW - 1022,1
02:00 rain Possible Drizzle 7° 0.18 mm 36% 13-33 km/h WNW WNW - 1021,7
03:00 rain Possible Drizzle 7° 0.12 mm 32% 13-36 km/h NNW NNW - 1021,4
04:00 cloudy Overcast 7° 0.09 mm 26% 13-38 km/h NW NW - 1021,3
05:00 cloudy Overcast 7° 0.04 mm 17% 15-40 km/h WNW WNW - 1021,6
06:00 cloudy Overcast 7° 4° 0.01 mm 9% 17-41 km/h West West - 1022,1
07:00 cloudy Overcast 7° 4° - 19-40 km/h WNW WNW - 1022,4
08:00 cloudy Overcast 8° 5° - 21-37 km/h NNE NNE uv-1 1023,1
09:00 partly-cloudy-day Mostly Cloudy 9° 0.01 mm 6% 22-34 km/h SSE SSE uv-2 1023,6
10:00 partly-cloudy-day Mostly Cloudy 11° 0.01 mm 6% 22-30 km/h West West uv-3 1024,0
11:00 partly-cloudy-day Mostly Cloudy 12° 0.01 mm 6% 21-27 km/h West West uv-4 1024,3
12:00 partly-cloudy-day Partly Cloudy 14° 0.02 mm 6% 19-25 km/h West West uv-4 1024,6
13:00 partly-cloudy-day Partly Cloudy 15° 0.04 mm 8% 18-23 km/h WSW WSW uv-4 1024,8
14:00 partly-cloudy-day Partly Cloudy 15° 0.09 mm 11% 18-22 km/h WSW WSW uv-4 1024,9
15:00 partly-cloudy-day Partly Cloudy 15° 0.18 mm 19% 18-22 km/h WSW WSW uv-3 1024,9
16:00 partly-cloudy-day Partly Cloudy 14° 0.27 mm 22% 17-22 km/h WSW WSW uv-1 1025,2
17:00 partly-cloudy-day Partly Cloudy 13° 0.25 mm 20% 16-22 km/h WSW WSW - 1025,7
18:00 partly-cloudy-day Partly Cloudy 11° 0.22 mm 17% 14-24 km/h WSW WSW - 1026,4
19:00 partly-cloudy-night Partly Cloudy 10° 0.19 mm 14% 13-24 km/h WSW WSW - 1027,0